TimeCDT,TemperatureF,Dew PointF,Humidity,Sea Level PressureIn,VisibilityMPH,Wind Direction,Wind SpeedMPH,Gust SpeedMPH,PrecipitationIn,Events,Conditions,WindDirDegrees,DateUTC
12:53 AM,66.9,55.0,66,29.99,10.0,NNE,10.4,-,N/A,,Clear,20,2013-09-14 05:53:00
1:53 AM,64.9,55.9,73,30.00,10.0,NE,6.9,-,N/A,,Clear,40,2013-09-14 06:53:00
2:53 AM,62.1,55.9,80,29.99,10.0,NNE,6.9,-,N/A,,Clear,30,2013-09-14 07:53:00
3:53 AM,60.1,55.9,86,29.99,10.0,NNE,5.8,-,N/A,,Clear,30,2013-09-14 08:53:00
4:53 AM,59.0,55.0,87,30.00,10.0,NNE,4.6,-,N/A,,Clear,30,2013-09-14 09:53:00
5:53 AM,57.9,54.0,87,30.01,10.0,NE,5.8,-,N/A,,Clear,40,2013-09-14 10:53:00
6:53 AM,55.9,53.1,90,30.04,10.0,NNE,5.8,-,N/A,,Clear,20,2013-09-14 11:53:00
7:53 AM,61.0,55.0,81,30.06,10.0,NE,8.1,-,N/A,,Clear,40,2013-09-14 12:53:00
8:53 AM,66.9,55.0,66,30.06,10.0,ENE,11.5,-,N/A,,Clear,60,2013-09-14 13:53:00
9:53 AM,73.0,54.0,51,30.07,10.0,ENE,8.1,-,N/A,,Clear,60,2013-09-14 14:53:00
10:53 AM,75.9,52.0,43,30.07,10.0,NE,9.2,-,N/A,,Clear,50,2013-09-14 15:53:00
11:53 AM,78.1,51.1,39,30.06,10.0,NE,8.1,-,N/A,,Clear,50,2013-09-14 16:53:00
12:53 PM,81.0,48.9,33,30.05,10.0,NNW,5.8,17.3,N/A,,Clear,340,2013-09-14 17:53:00
1:53 PM,81.0,46.9,30,30.03,10.0,Variable,6.9,-,N/A,,Clear,0,2013-09-14 18:53:00
2:53 PM,82.0,46.9,29,30.01,10.0,North,12.7,-,N/A,,Partly Cloudy,360,2013-09-14 19:53:00
3:53 PM,82.0,48.0,30,29.99,10.0,NE,8.1,16.1,N/A,,Clear,40,2013-09-14 20:53:00
4:53 PM,82.0,48.9,31,29.99,7.0,NNE,6.9,-,N/A,,Scattered Clouds,20,2013-09-14 21:53:00
5:09 PM,82.4,48.2,30,29.97,2.0,North,10.4,-,N/A,,Haze,360,2013-09-14 22:09:00
5:18 PM,80.6,48.2,32,29.97,8.0,NNE,5.8,-,N/A,,Partly Cloudy,30,2013-09-14 22:18:00
5:53 PM,80.1,46.9,31,29.99,10.0,North,10.4,-,N/A,,Scattered Clouds,10,2013-09-14 22:53:00
6:53 PM,75.0,48.9,40,30.00,10.0,NNE,6.9,-,N/A,,Clear,20,2013-09-14 23:53:00
7:53 PM,66.9,54.0,63,30.01,10.0,NNE,3.5,-,N/A,,Clear,20,2013-09-15 00:53:00
8:53 PM,63.0,51.1,65,30.03,10.0,North,4.6,-,N/A,,Clear,350,2013-09-15 01:53:00
9:53 PM,61.0,51.1,70,30.04,10.0,North,5.8,-,N/A,,Clear,10,2013-09-15 02:53:00
10:53 PM,61.0,52.0,72,30.04,10.0,NNE,4.6,-,N/A,,Clear,30,2013-09-15 03:53:00
11:53 PM,60.1,52.0,75,30.05,10.0,NNE,5.8,-,N/A,,Clear,20,2013-09-15 04:53:00